Forrest,

8:41 PM AWST on January 19, 2018 (GMT +0800)
Forrest

Weather History for YFRT - October, 2013

Change the Weather History Date:

Monday, October 14, 2013

  Actual Average Record
Temperature  
Mean Temperature 57 °F -  
Max Temperature 75 °F - - ()
Min Temperature 39 °F - - ()
Degree Days  
Heating Degree Days 8    
Growing Degree Days 7 (Base 50)    
Moisture  
Dew Point 30 °F    
Average Humidity 39    
Maximum Humidity 75    
Minimum Humidity 6    
Precipitation  
Precipitation 0.00 in - - ()
Sea Level Pressure  
Sea Level Pressure 30.25 in    
Wind  
Wind Speed 9 mph ()    
Max Wind Speed 15 mph    
Max Gust Speed -    
T = Trace of Precipitation, MM = Missing Value Source: Averaged Metar Reports

Daily Weather History Graph

Daily Weather History Graph

Search for Another Location

Airport or City:

Trip Planner

Search our weather history database for the weather conditions in past years. The results will help you decide how hot, cold, wet, or windy it might be!

Date:

Astronomy

Oct. 14, 2013 Rise Set
Actual Time 4:50 AM AWST 5:37 PM AWST
Civil Twilight 4:25 AM AWST 6:01 PM AWST
Nautical Twilight 3:56 AM AWST 6:30 PM AWST
Astronomical Twilight 3:27 AM AWST 7:00 PM AWST
Moon 12:58 PM AWST (10/14) 1:24 AM AWST (10/14)
Length of Visible Light 13h 36m
Length of Day
12h 47m
Waxing Gibbous, 74% of the Moon is Illuminated
Oct 14
Waxing Gibbous
Oct 19
Full
Oct 27
Last Quarter
Nov 3
New
Nov 10
First Quarter

Hourly Weather History & Observations

Time (AWST) Temp. Windchill Dew Point Humidity Pressure Visibility Wind Dir Wind Speed Gust Speed Precip Events Conditions
12:00 AM 47 °F - 35 °F 52% 30.32 in - ESE 10.4 mph - -  
12:00 AM 46.4 °F 41.5 °F 35.6 °F 66% 30.33 in - ESE 10.4 mph - N/A   Unknown
1:00 AM 44.6 °F 39.7 °F 33.8 °F 66% 30.33 in - ESE 9.2 mph - N/A   Unknown
2:00 AM 44 °F - 33 °F 56% 30.32 in - East 10.4 mph - -  
2:00 AM 44.6 °F 39.2 °F 33.8 °F 66% 30.30 in - East 10.4 mph - N/A   Unknown
3:00 AM 43 °F - 33 °F 59% 30.32 in - East 11.5 mph - -  
3:00 AM 42.8 °F 36.6 °F 33.8 °F 70% 30.33 in - East 11.5 mph - N/A   Unknown
4:00 AM 42.8 °F 37.0 °F 33.8 °F 70% 30.33 in - ESE 10.4 mph - N/A   Unknown
5:00 AM 40 °F - 31 °F 61% 30.35 in - East 6.9 mph - -  
5:00 AM 39.2 °F 34.2 °F 32.0 °F 75% 30.36 in - East 6.9 mph - N/A   Unknown
6:00 AM 46 °F - 35 °F 53% 30.37 in - ENE 8.1 mph - -  
6:00 AM 46.4 °F 42.4 °F 33.8 °F 62% 30.36 in - ENE 8.1 mph - N/A   Unknown
6:56 AM 55.4 °F - 37.4 °F 51% 30.36 in - ENE 13.8 mph - N/A   Unknown
7:00 AM 55.4 °F - 37.4 °F 51% 30.36 in - ENE 15.0 mph - N/A   Unknown
8:00 AM 58 °F - 35 °F 30% 30.36 in - ENE 15.0 mph - -  
8:00 AM 57.2 °F - 35.6 °F 44% 30.36 in - ENE 15.0 mph - N/A   Unknown
9:00 AM 61 °F - 34 °F 25% 30.36 in - ENE 11.5 mph - -  
9:00 AM 60.8 °F - 33.8 °F 36% 30.36 in - ENE 11.5 mph - N/A   Unknown
10:00 AM 64.4 °F - 32.0 °F 30% 30.33 in - ENE 11.5 mph - N/A   Unknown
11:00 AM 66.2 °F - 32.0 °F 28% 30.30 in - ENE 9.2 mph - N/A   Unknown
12:00 PM 68.0 °F - 30.2 °F 24% 30.24 in - East 10.4 mph - N/A   Unknown
1:00 PM 71.6 °F - 26.6 °F 19% 30.21 in - ENE 4.6 mph - N/A   Unknown
2:00 PM 73 °F - 22 °F 7% 30.19 in - East 6.9 mph - -  
2:00 PM 73.4 °F - 23.0 °F 15% 30.18 in - East 6.9 mph - N/A   Unknown
3:00 PM 73 °F - 20 °F 6% 30.17 in - East 8.1 mph - -  
3:00 PM 73.4 °F - 19.4 °F 13% 30.15 in - East 8.1 mph - N/A   Unknown
4:00 PM 73.4 °F - 19.4 °F 13% 30.15 in - ENE 8.1 mph - N/A   Unknown
5:00 PM 72 °F - 21 °F 7% 30.15 in - NE 11.5 mph - -  
5:00 PM 73.4 °F - 21.2 °F 14% 30.15 in - NE 11.5 mph - N/A   Unknown
6:00 PM 66 °F - 20 °F 9% 30.15 in - ENE 9.2 mph - -  
6:00 PM 66.2 °F - 19.4 °F 17% 30.15 in - ENE 9.2 mph - N/A   Unknown
7:00 PM 60.8 °F - 19.4 °F 20% 30.15 in - ENE 9.2 mph - N/A   Unknown
8:00 PM 59 °F - 20 °F 12% 30.17 in - East 10.4 mph - -  
8:00 PM 59.0 °F - 19.4 °F 22% 30.15 in - East 10.4 mph - N/A   Unknown
9:00 PM 58 °F - 40 °F 40% 30.16 in - East 15.0 mph - -  
9:00 PM 59.0 °F - 41.0 °F 51% 30.15 in - East 15.0 mph - N/A   Unknown
10:00 PM 55.4 °F - 41.0 °F 58% 30.15 in - East 10.4 mph - N/A   Unknown
11:00 PM 53 °F - 40 °F 51% 30.16 in - East 8.1 mph - -  
11:00 PM 53.6 °F - 41.0 °F 62% 30.15 in - East 8.1 mph - N/A   Unknown